Regional Weather Roundup
Issued by NWS

Home | Current Version | Previous Version | Text Only | Print | Product List | Glossary Off
Versions: 1 2 3 4 5 6 7 8 9 10 11 12 13 14 15 16 17 18 19 20 21 22 23 24 25 26 27 28 29 30 31 32 33 34 35 36 37 38 39 40 41 42 43 44 45 46 47 48 49 50

000
ASUS45 KSLC 021110
RWRUT

UTAH REGIONAL WEATHER ROUNDUP
NATIONAL WEATHER SERVICE SALT LAKE CITY UT
500 AM MDT THU JUL 02 2015

UTZ001>011-023>025-021200-

NORTHERN UTAH

CITY           SKY/WX    TMP DP  RH WIND       PRES   REMARKS
HILL AFB       MOCLDY    71  49  46 E16       30.07R
LOGAN          CLEAR     60  52  74 NE5       30.06R
OGDEN          MOCLDY    73  49  42 CALM      30.04S
PROVO AIRPORT  MOCLDY    66  52  59 SE3       30.07S
SALT LAKE CITY MOCLDY    76  51  41 S5        30.02R
VERNAL         CLOUDY    68  46  45 W5        30.09S
WENDOVER       PTCLDY    84  46  26 NW10      30.05F
WEST JORDAN    CLEAR     73  48  40 W3        30.06S

$$

UTZ012>022-026-027-021200-

SOUTHERN/CENTRAL UTAH

CITY           SKY/WX    TMP DP  RH WIND       PRES   REMARKS
BRYCE CANYON   CLOUDY    59  49  69 W9        30.33S
CEDAR CITY     CLOUDY    73  51  46 SE7       30.18F
MILFORD        CLOUDY    73  52  47 S15       30.12R
MOAB/CYNLANDS  MOCLDY    77  54  44 S6        30.00R
PRICE          PTCLDY    73  39  29 NW9       30.13S
ST GEORGE      PTSUNNY   81  63  54 S9        29.99R
KANAB          CLOUDY    70  61  73 S3        30.19F

$$

REGIONAL REPORTS     COLORADO/ARIZONA

CITY           SKY/WX    TMP DP  RH WIND       PRES   REMARKS
CRAIG, CO      MOCLDY    53  47  79 CALM      30.19R
GRAND JUNCTION CLOUDY    73  53  49 SE5       30.04R
RIFLE          CLOUDY    64  49  57 CALM      30.13R
MONTROSE       CLOUDY    72  51  47 CALM      30.15R
CORTEZ         CLOUDY    71  54  54 VRB3      30.22S
PAGE, AZ       CLOUDY    81  54  39 SW8       30.07R
GRAND CANYON     N/A    N/A N/A N/A MISG      30.28R
KINGMAN        CLOUDY    74  63  68 CALM      30.06R
FLAGSTAFF      CLOUDY    57  56  96 S3        30.30F

$$

REGIONAL REPORTS    NEVADA/IDAHO/WYOMING

CITY           SKY/WX    TMP DP  RH WIND       PRES   REMARKS
LAS VEGAS, NV  CLOUDY    81  69  67 W9        29.90R THUNDER
ELY            CLOUDY    61  51  70 S5        30.25F
ELKO           PTCLDY    63  50  62 W3        30.16S
POCATELLO, ID  CLEAR     62  57  83 SW8       30.07R
BURLEY         CLEAR     61  51  70 S5        30.05S
EVANSTON, WY   MOCLDY    61  42  49 SE5       30.29R
ROCK SPRINGS   MOCLDY    62  49  62 NE8       30.25R

$$



USA.gov is the U.S. government's official web portal to all federal, state and local government web resources and services.